This demonstration page uses our WeatherBlox Daily Observations layout. Learn more.

Left ArrowRight Arrow

30.21309, -93.2044

Hourly Observations for June 16, 2019

Temp ( °F °C ) Dew Point ( °F °C ) Humidity (%) Winds ( mph kmh ) Pressure ( in mb ) Visibility ( mi km ) Precip ( " mm )
12:15 am 00:15 Clear 76 24.5 74 23.5 94 94 ESE 6 9 29.97 1015 10 16 0.00 0.00
12:35 am 00:35 Partly Cloudy 78 25.3 75 24 93 93 ESE 7 11 29.97 1015 10 16 0.00 0.00
12:55 am 00:55 Partly Cloudy 77 25 75 23.9 94 94 SSE 5 7 29.96 1015 10 16 0.00 0.00
1:15 am 01:15 Partly Cloudy 76 24.7 75 23.8 95 95 Calm 29.95 1014 10 16 0.00 0.00
1:35 am 01:35 Clear 76 24.5 75 23.9 96 96 SE 5 7 29.94 1014 10 16 0.00 0.00
1:55 am 01:55 Clear 78 25.5 75 24 91 91 SE 6 9 29.94 1014 10 16 0.00 0.00
2:15 am 02:15 Clear 77 25 75 24 94 94 SSE 5 7 29.93 1014 10 16 0.00 0.00
2:35 am 02:35 Clear 78 25.3 75 24 93 93 SSE 6 9 29.93 1014 10 16 0.00 0.00
2:55 am 02:55 Clear 78 25.6 75 24.1 91 91 SE 7 11 29.93 1014 10 16 0.00 0.00
3:15 am 03:15 Clear 79 26 76 24.2 90 90 SE 7 11 29.92 1013 10 16 0.00 0.00
3:35 am 03:35 Clear 78 25.8 75 24 90 90 ESE 7 11 29.92 1013 10 16 0.00 0.00
3:55 am 03:55 Clear 78 25.3 75 24 93 93 ESE 7 11 29.94 1014 10 16 0.00 0.00
4:15 am 04:15 Clear 77 25.1 75 23.9 93 93 ESE 7 11 29.94 1014 10 16 0.00 0.00
4:35 am 04:35 Clear 78 25.4 75 23.9 91 91 ESE 7 11 29.94 1014 10 16 0.00 0.00
4:55 am 04:55 Clear 75 24 74 23.2 95 95 Calm 29.95 1014 10 16 0.00 0.00
5:15 am 05:15 Clear 75 23.8 74 23.2 96 96 SSE 3 6 29.95 1014 10 16 0.00 0.00
5:35 am 05:35 Clear 74 23.6 74 23.1 97 97 Calm 29.95 1014 10 16 0.00 0.00
6:00 am 06:00 Mostly Clear 75 24 73 23 94 94 Calm 29.94 1014 10 16 0.00 0.00
6:55 am 06:55 Mostly Sunny 75 24 73 23 94 94 Calm 29.94 1014 10 16 0.00 0.00
7:50 am 07:50 Mostly Sunny 81 27 77 25 89 89 SE 6 9 29.96 1015 10 16 0.00 0.00
8:55 am 08:55 Mostly Sunny 81 27 77 25 89 89 SE 6 9 29.98 1015 10 16 0.00 0.00
9:55 am 09:55 Mostly Cloudy 86 30 73 23 66 66 S 13 20 29.98 1015 10 16 0.00 0.00
10:50 am 10:50 Mostly Cloudy 88 31 73 23 62 62 S 14 22 29.98 1015 10 16 0.00 0.00
11:45 am 11:45 Partly Cloudy 90 32 73 23 59 59 SSE 9 15 29.97 1015 10 16 0.00 0.00
12:45 pm 12:45 Partly Cloudy 90 32 73 23 59 59 S 17 28 29.94 1014 10 16 0.00 0.00
2:50 pm 14:50 Mostly Cloudy 91 33 73 23 56 56 S 15 24 29.95 1014 10 16 0.00 0.00
3:50 pm 15:50 Partly Cloudy 91 33 72 22 52 52 SSW 13 20 29.94 1014 10 16 0.00 0.00
4:50 pm 16:50 Cloudy 88 31 73 23 62 62 SSW 8 13 29.94 1014 10 16 0.00 0.00
5:05 pm 17:05 Cloudy 88 31 73 23 62 62 NNE 22 35 29.94 1014 10 16 0.00 0.00
5:55 pm 17:55 Mostly Cloudy with Light Rain 72 22 66 19 83 83 N 12 19 29.97 1015 10 16 0.00 0.00
6:55 pm 18:55 Partly Cloudy 70 21 68 20 94 94 NNE 9 15 29.96 1015 10 16 0.00 0.00
7:50 pm 19:50 Partly Cloudy 70 21 68 20 94 94 NE 7 11 29.97 1015 10 16 0.00 0.00
8:50 pm 20:50 Partly Cloudy 70 21 68 20 94 94 ENE 5 7 29.95 1014 10 16 0.00 0.00
9:50 pm 21:50 Mostly Clear 72 22 68 20 88 88 NE 5 7 29.97 1015 10 16 0.00 0.00
10:15 pm 22:15 Clear 72 22 68 20 88 88 NE 5 7 29.96 1015 10 16 0.00 0.00
10:35 pm 22:35 Clear with Nearby Thunderstorms 71 21.8 68 20 90 90 NNE 9 15 29.97 1015 10 16 0.00 0.00
10:55 pm 22:55 Clear with Thunderstorms 71 21.6 68 20 91 91 NE 6 9 29.98 1015 10 16 0.00 0.00
11:15 pm 23:15 Mostly Cloudy with Nearby Thunderstorms 71 21.7 68 19.9 90 90 NNW 3 6 29.99 1016 10 16 0.00 0.00
11:35 pm 23:35 Cloudy with Thunderstorms 72 22 68 20 88 88 Calm 30.00 1016 10 16 0.00 0.00
11:55 pm 23:55 Cloudy with Nearby Thunderstorms 71 21.4 69 20.4 94 94 NNE 5 7 29.98 1015 7 11 0.00 0.00

Powered by AerisWeather